Date String (YYYY-MM-DD hh:mm:ss) UTC,Instrument flags,Ambient pressure (hPa),Sample flow (lpm),Bypass flow (lpm),Sample temperature (°C),Ambient temperature (°C),ASC tube jacket temperature (°C),LED temperature (°C),Box temperature (°C),Sample RH (%),Span deviation,Mass concentration (μg/m³),Mass concentration (μg/m³),Mass concentration (μg/m³)
DateTimeUTC,F1_M11,P_M11,Q1_M11,Q2_M11,T1_M11,T2_M11,T3_M11,T4_M11,T5_M11,U1_M11,ZSPAN_M11,X0_M11,X2_M11,X1_M11
2023-01-19 15:00:00,,0820.6,4.99,0.00,22.5,22.8,00.0,31.2,24.4,06.9,0000.0,0008.34,0002.66,0002.21
2023-01-19 15:01:00,,0820.7,4.98,0.00,22.6,22.6,00.0,31.2,24.5,07.0,0000.0,0008.40,0002.70,0002.20
2023-01-19 15:02:00,,0820.6,5.01,0.00,22.6,22.2,00.0,31.2,24.4,07.0,0000.0,0008.54,0002.74,0002.19
2023-01-19 15:03:00,,0820.6,5.00,0.00,22.6,21.8,00.0,31.3,24.4,07.1,0000.0,0008.39,0002.76,0002.19
2023-01-19 15:04:00,,0820.5,5.01,0.00,22.5,21.5,00.0,31.3,24.2,07.1,0000.0,0007.78,0002.78,0002.19
2023-01-19 15:05:00,,0820.5,4.99,0.00,22.5,21.3,00.0,31.3,24.2,07.1,0000.0,0006.87,0002.80,0002.23
2023-01-19 15:06:00,,0820.6,5.00,0.00,22.5,21.1,00.0,31.3,24.1,07.0,0000.0,0005.90,0002.80,0002.24
2023-01-19 15:07:00,,0820.6,5.00,0.00,22.5,21.0,00.0,31.3,24.1,06.9,0000.0,0005.74,0002.82,0002.29
2023-01-19 15:08:00,,0820.6,5.00,0.00,22.4,20.9,00.0,31.3,24.1,06.9,0000.0,0005.77,0002.87,0002.29
2023-01-19 15:09:00,,0820.6,4.99,0.00,22.4,20.9,00.0,31.2,24.1,06.9,0000.0,0005.77,0002.89,0002.28
2023-01-19 15:10:00,,0820.6,5.00,0.00,22.4,20.9,00.0,31.2,24.1,06.9,0000.0,0005.40,0002.88,0002.27
2023-01-19 15:11:00,,0820.6,5.00,0.00,22.4,20.9,00.0,31.2,24.1,06.8,0000.0,0006.00,0002.89,0002.25
2023-01-19 15:12:00,,0820.6,5.00,0.00,22.4,20.9,00.0,31.2,24.1,06.8,0000.0,0007.22,0002.78,0002.22
2023-01-19 15:13:00,,0820.8,5.01,0.00,22.4,20.8,00.0,31.2,24.0,06.7,0000.0,0006.97,0002.66,0002.16
2023-01-19 15:14:00,,0820.8,5.01,0.00,22.3,20.6,00.0,31.2,23.9,06.8,0000.0,0006.65,0002.59,0002.12
2023-01-19 15:15:00,,0820.7,5.01,0.00,22.3,21.2,00.0,31.2,24.1,06.9,0000.0,0006.21,0002.55,0002.09
2023-01-19 15:16:00,,0820.7,4.99,0.00,22.4,22.6,00.0,31.2,24.3,07.0,0000.0,0006.19,0002.51,0002.06
2023-01-19 15:17:00,,0820.7,5.01,0.00,22.6,23.1,00.0,31.2,24.5,07.1,0000.0,0006.08,0002.50,0002.07
2023-01-19 15:18:00,,0820.6,5.01,0.00,22.6,22.7,00.0,31.2,24.5,07.0,0000.0,0006.03,0002.49,0002.09
2023-01-19 15:19:00,,0820.7,5.00,0.00,22.6,22.4,00.0,31.3,24.5,07.1,0000.0,0005.87,0002.49,0002.15
2023-01-19 15:20:00,,0820.7,5.00,0.00,22.6,22.1,00.0,31.3,24.4,07.1,0000.0,0005.84,0002.52,0002.22
2023-01-19 15:21:00,,0820.7,5.02,0.00,22.6,21.9,00.0,31.3,24.4,07.2,0000.0,0005.85,0002.59,0002.31
2023-01-19 15:22:00,,0820.7,5.00,0.00,22.6,21.7,00.0,31.3,24.4,07.2,0000.0,0005.59,0002.75,0002.45
2023-01-19 15:23:00,,0820.8,4.99,0.00,22.6,21.5,00.0,31.3,24.4,07.4,0000.0,0004.18,0002.96,0002.64
2023-01-19 15:24:00,,0820.8,5.01,0.00,22.6,21.5,00.0,31.3,24.4,07.5,0000.0,0004.42,0003.15,0002.86
2023-01-19 15:25:00,,0820.9,5.01,0.00,22.6,21.5,00.0,31.3,24.4,07.5,0000.0,0004.47,0003.25,0003.04
2023-01-19 15:26:00,,0820.9,5.00,0.00,22.6,21.5,00.0,31.4,24.4,07.8,0000.0,0004.78,0003.41,0003.23
2023-01-19 15:27:00,,0820.9,4.98,0.00,22.6,21.5,00.0,31.4,24.4,07.9,0000.0,0004.94,0003.55,0003.38
2023-01-19 15:28:00,,0820.9,4.99,0.00,22.6,21.5,00.0,31.4,24.4,07.9,0000.0,0005.18,0003.68,0003.50
2023-01-19 15:29:00,,0820.9,5.00,0.00,22.7,21.5,00.0,31.4,24.4,07.9,0000.0,0005.51,0003.82,0003.62
2023-01-19 15:30:00,,0821.0,5.00,0.00,22.7,21.5,00.0,31.4,24.4,07.9,0000.0,0005.78,0003.95,0003.75
2023-01-19 15:31:00,,0821.0,5.00,0.00,22.7,21.5,00.0,31.4,24.4,07.8,0000.0,0006.04,0004.07,0003.86
2023-01-19 15:32:00,,0821.0,5.00,0.00,22.7,21.5,00.0,31.4,24.4,07.8,0000.0,0006.24,0004.17,0003.95
2023-01-19 15:33:00,,0821.0,4.99,0.00,22.7,21.5,00.0,31.4,24.4,07.9,0000.0,0006.92,0004.23,0004.04
2023-01-19 15:34:00,,0821.0,5.01,0.00,22.7,21.4,00.0,31.4,24.4,07.9,0000.0,0007.46,0004.26,0004.09
2023-01-19 15:35:00,,0821.0,4.99,0.00,22.7,21.4,00.0,31.4,24.4,07.9,0000.0,0007.45,0004.30,0004.13
2023-01-19 15:36:00,,0821.1,4.99,0.00,22.7,21.4,00.0,31.4,24.4,07.9,0000.0,0007.52,0004.36,0004.19
2023-01-19 15:37:00,,0821.1,5.00,0.00,22.7,21.4,00.0,31.4,24.4,07.9,0000.0,0007.64,0004.38,0004.20
2023-01-19 15:38:00,,0821.0,5.00,0.00,22.7,21.4,00.0,31.4,24.4,07.9,0000.0,0007.65,0004.38,0004.20
2023-01-19 15:39:00,,0821.1,5.01,0.00,22.7,21.4,00.0,31.4,24.4,08.0,0000.0,0007.66,0004.39,0004.21
2023-01-19 15:40:00,,0821.1,5.01,0.00,22.7,21.4,00.0,31.4,24.4,08.0,0000.0,0007.62,0004.38,0004.21
2023-01-19 15:41:00,,0821.1,5.01,0.00,22.7,21.8,00.0,31.4,24.5,08.0,0000.0,0007.61,0004.36,0004.20
2023-01-19 15:42:00,,0821.1,4.98,0.00,22.8,22.9,00.0,31.4,24.7,07.7,0000.0,0007.54,0004.32,0004.16
2023-01-19 15:43:00,,0821.2,4.99,0.00,22.9,23.5,00.0,31.5,24.9,07.7,0000.0,0007.50,0004.28,0004.12
2023-01-19 15:44:00,,0821.2,4.99,0.00,22.9,23.1,00.0,31.5,24.9,07.7,0000.0,0006.76,0004.25,0004.07
2023-01-19 15:45:00,,0821.2,5.02,0.00,23.0,22.8,00.0,31.5,24.9,07.5,0000.0,0006.08,0004.17,0004.01
2023-01-19 15:46:00,,0821.2,4.98,0.00,23.0,22.5,00.0,31.6,24.9,07.5,0000.0,0006.58,0004.13,0003.97
2023-01-19 15:47:00,,0821.2,5.00,0.00,23.0,22.2,00.0,31.6,24.9,07.6,0000.0,0007.04,0004.09,0003.92
2023-01-19 15:48:00,,0821.2,5.00,0.00,23.0,22.1,00.0,31.6,24.8,07.5,0000.0,0006.74,0004.02,0003.86
2023-01-19 15:49:00,,0821.2,5.00,0.00,23.0,22.0,00.0,31.6,24.8,07.6,0000.0,0006.62,0003.97,0003.80
2023-01-19 15:50:00,,0821.2,4.99,0.00,23.0,22.0,00.0,31.7,24.8,07.5,0000.0,0006.54,0003.91,0003.74
2023-01-19 15:51:00,,0821.1,5.00,0.00,23.0,22.0,00.0,31.7,24.8,07.5,0000.0,0006.47,0003.85,0003.69
2023-01-19 15:52:00,,0821.1,4.99,0.00,23.0,21.9,00.0,31.7,24.8,07.5,0000.0,0006.44,0003.78,0003.61
2023-01-19 15:53:00,,0821.2,4.99,0.00,23.0,21.9,00.0,31.7,24.8,07.5,0000.0,0006.54,0003.74,0003.58
2023-01-19 15:54:00,,0821.1,4.99,0.00,23.0,21.9,00.0,31.7,24.8,07.5,0000.0,0006.65,0003.72,0003.54
2023-01-19 15:55:00,,0821.1,5.00,0.00,23.0,21.9,00.0,31.7,24.8,07.5,0000.0,0006.43,0003.66,0003.50
2023-01-19 15:56:00,,0821.1,5.01,0.00,23.0,21.8,00.0,31.7,24.8,07.5,0000.0,0006.46,0003.64,0003.46
2023-01-19 15:57:00,,0821.1,5.01,0.00,23.0,21.8,00.0,31.8,24.8,07.5,0000.0,0006.06,0003.60,0003.42
2023-01-19 15:58:00,,0821.2,5.00,0.00,23.0,21.8,00.0,31.8,24.8,07.5,0000.0,0005.17,0003.53,0003.37
2023-01-19 15:59:00,,0821.1,5.01,0.00,23.0,21.7,00.0,31.7,24.8,07.5,0000.0,0005.00,0003.48,0003.32
